Showing default

SKYKRAFT-1A, 55054

Orbit data source: Space-Track

SKYKRAFT-1A, 55054 is a payload satellite owned by SkyKraft (AU) in SSO that was launched on Tue, 03 Jan 2023 UTC via an FALCON 9 launch vehicle from the Air Force Eastern Test Range (AFETR). Payload-class satellites include a variety of spacecraft equipped with specific instruments for various scientific and technological missions. These include communications satellites like Starlink; space stations such as the ISS; scientific satellites like the Hubble; Earth observation satellites from companies like Planet Labs, Umbra, and HawkEye 360; GPS; miniature CubeSats for education and research; and military/defense satellites.

Loading next visibility...
Identifier
55054, 2023-001AX
Orbit
SSO
Country
Flag of AUAU / AUS
Related business
Manufacturer
SkyKraft
Mission
Operational Commercial Communications
Bus & Motor
SKYKRAFT, Unknown motor
Mass
~50 kg wet, ~50 kg dry
Launch date (UTC)
2023-01-03 (3 years ago)
Launch vehicle
FALCON 9
Launch site
Air Force Eastern Test Range (AFETR)
Object type
Payload
Rocket body
Debris
Shape & HBR
Box, 0.3 m
Radar Cross Section
0.065 m², Large (>1 m²)

Expand to show TLE details & history
Last TLE update: 11 hours ago

TLE from 11 hours ago
0 SKYKRAFT-1A
1 55054U 23001AX  26166.11027632  .00005209  00000-0  18590-3 0  9990
2 55054  97.3221 223.5126 0010825 133.5190 226.6952 15.29254013191403
Epoch: 2026-06-15T02:38Z
TLE epoch observation values (Epoch: 2026-06-15T02:38:47.874Z)
Latitude
0.00003°
Longitude
-79.58825°
Altitude
486.242 km
Speed
7.619 km/s
True Right ascension
14h 54m 03s
True Declination
0° 00' 00"
Sunlit
Object was in full shadow at epoch
Visualization orbit readout
Latitude
Unknown
Longitude
Unknown
Altitude
Unknown
Speed
Unknown
Apparent Right ascension
Unknown
Apparent Declination
Unknown
Sunlit
N/A
Visualization observer readout
Local Sidereal Time
00:02:43
Azimuth
Unknown
Elevation
Unknown
Doppler factor
Unknown
Orbital elements
Apogee altitude
482.409 km
Perigee altitude
467.572 km
Semi-major axis
6,853.128 km
Eccentricity
0.00108
Inclination
97.3221°
RAAN
223.5126°
Arg. of periapsis
133.519°
True anomaly
226.60501°
Mean anomaly
226.6952°
Eccentric anomaly
226.6501°
Mean motion
3.82569 °/min
Orbital period
94.1 mins
BSTAR
0.0001859
Loading maneuver chart data...
Computing Atmospheric mass density...

Documentation

Showing up to 5 results
|